Time,TemperatureF,DewpointF,PressureIn,WindDirection,WindDirectionDegrees,WindSpeedMPH,WindSpeedGustMPH,Humidity,HourlyPrecipIn,Conditions,Clouds,dailyrainin,SoftwareType,DateUTC
2013-05-17 00:02:00,60.4,27.1,29.68,ESE,117,1.0,1.0,28,0.00,,,0.00,Wunderground v.1.15,2013-05-17 06:02:00,
2013-05-17 00:04:00,60.4,26.2,29.68,ESE,114,1.0,2.0,27,0.00,,,0.00,Wunderground v.1.15,2013-05-17 06:04:00,
2013-05-17 00:06:00,60.5,27.2,29.68,ESE,114,1.0,2.0,28,0.00,,,0.00,Wunderground v.1.15,2013-05-17 06:06:00,
2013-05-17 00:10:00,60.4,26.2,29.68,ESE,114,1.0,1.0,27,0.00,,,0.00,Wunderground v.1.15,2013-05-17 06:10:00,
2013-05-17 00:12:00,60.4,27.1,29.68,ESE,123,1.0,1.0,28,0.00,,,0.00,Wunderground v.1.15,2013-05-17 06:12:00,
2013-05-17 00:14:00,60.4,27.1,29.68,SE,124,1.0,2.0,28,0.00,,,0.00,Wunderground v.1.15,2013-05-17 06:14:00,
2013-05-17 00:16:00,60.5,27.2,29.66,SSE,159,1.0,2.0,28,0.00,,,0.00,Wunderground v.1.15,2013-05-17 06:16:00,
2013-05-17 00:22:00,60.7,26.5,29.66,ESE,108,2.0,2.0,27,0.00,,,0.00,Wunderground v.1.15,2013-05-17 06:22:00,
2013-05-17 00:26:00,60.7,26.5,29.66,ESE,120,1.0,3.0,27,0.00,,,0.00,Wunderground v.1.15,2013-05-17 06:26:00,
2013-05-17 00:28:00,60.5,26.3,29.66,ESE,120,1.0,3.0,27,0.00,,,0.00,Wunderground v.1.15,2013-05-17 06:28:00,
2013-05-17 00:34:00,60.4,25.3,29.66,ESE,106,1.0,3.0,26,0.00,,,0.00,Wunderground v.1.15,2013-05-17 06:34:00,
2013-05-17 00:36:00,60.4,25.3,29.66,ESE,108,1.0,3.0,26,0.00,,,0.00,Wunderground v.1.15,2013-05-17 06:36:00,
2013-05-17 00:38:00,60.2,25.1,29.66,ESE,108,1.0,3.0,26,0.00,,,0.00,Wunderground v.1.15,2013-05-17 06:38:00,
2013-05-17 00:40:00,60.2,24.2,29.66,ESE,108,1.0,3.0,25,0.00,,,0.00,Wunderground v.1.15,2013-05-17 06:40:00,
2013-05-17 00:42:00,60.1,25.1,29.66,ESE,105,1.0,3.0,26,0.00,,,0.00,Wunderground v.1.15,2013-05-17 06:42:00,
2013-05-17 00:48:00,59.8,24.8,29.66,SE,131,2.0,4.0,26,0.00,,,0.00,Wunderground v.1.15,2013-05-17 06:48:00,
2013-05-17 00:50:00,59.6,24.6,29.66,ESE,113,3.0,3.0,26,0.00,,,0.00,Wunderground v.1.15,2013-05-17 06:50:00,
2013-05-17 00:52:00,59.3,25.3,29.66,East,97,3.0,3.0,27,0.00,,,0.00,Wunderground v.1.15,2013-05-17 06:52:00,
2013-05-17 00:54:00,59.2,25.2,29.66,East,99,2.0,3.0,27,0.00,,,0.00,Wunderground v.1.15,2013-05-17 06:54:00,
2013-05-17 10:00:00,72.0,18.4,29.76,SW,230,6.0,6.0,13,0.00,,,0.00,Wunderground v.1.15,2013-05-17 16:00:00,
2013-05-17 10:02:00,72.1,16.6,29.76,SSW,204,5.0,9.0,12,0.00,,,0.00,Wunderground v.1.15,2013-05-17 16:02:00,
2013-05-17 10:06:00,72.3,18.7,29.76,SSW,193,5.0,9.0,13,0.00,,,0.00,Wunderground v.1.15,2013-05-17 16:06:00,
2013-05-17 10:08:00,72.7,22.3,29.76,SW,226,5.0,9.0,15,0.00,,,0.00,Wunderground v.1.15,2013-05-17 16:08:00,
2013-05-17 10:12:00,72.5,20.5,29.76,SW,227,6.0,7.0,14,0.00,,,0.00,Wunderground v.1.15,2013-05-17 16:12:00,
2013-05-17 10:14:00,72.5,20.5,29.76,SW,228,5.0,7.0,14,0.00,,,0.00,Wunderground v.1.15,2013-05-17 16:14:00,
2013-05-17 10:16:00,72.7,20.7,29.75,SW,235,6.0,7.0,14,0.00,,,0.00,Wunderground v.1.15,2013-05-17 16:16:00,
2013-05-17 10:20:00,73.0,19.2,29.75,SW,225,5.0,5.0,13,0.00,,,0.00,Wunderground v.1.15,2013-05-17 16:20:00,
2013-05-17 10:22:00,73.2,19.4,29.75,South,186,4.0,5.0,13,0.00,,,0.00,Wunderground v.1.15,2013-05-17 16:22:00,
2013-05-17 10:24:00,73.2,17.5,29.75,SSW,209,5.0,5.0,12,0.00,,,0.00,Wunderground v.1.15,2013-05-17 16:24:00,
2013-05-17 10:28:00,73.7,17.9,29.75,WSW,241,4.0,5.0,12,0.00,,,0.00,Wunderground v.1.15,2013-05-17 16:28:00,
2013-05-17 10:32:00,73.5,19.6,29.75,WSW,249,5.0,9.0,13,0.00,,,0.00,Wunderground v.1.15,2013-05-17 16:32:00,
2013-05-17 10:34:00,73.5,17.7,29.75,SW,219,5.0,9.0,12,0.00,,,0.00,Wunderground v.1.15,2013-05-17 16:34:00,
2013-05-17 10:38:00,73.3,15.6,29.75,SSW,202,6.0,9.0,11,0.00,,,0.00,Wunderground v.1.15,2013-05-17 16:38:00,
2013-05-17 10:40:00,73.2,15.5,29.75,WSW,244,6.0,6.0,11,0.00,,,0.00,Wunderground v.1.15,2013-05-17 16:40:00,
2013-05-17 10:46:00,73.5,21.3,29.75,SSW,207,6.0,6.0,14,0.00,,,0.00,Wunderground v.1.15,2013-05-17 16:46:00,
2013-05-17 10:48:00,73.9,19.9,29.75,South,177,5.0,6.0,13,0.00,,,0.00,Wunderground v.1.15,2013-05-17 16:48:00,
2013-05-17 10:50:00,74.2,20.1,29.75,South,176,5.0,5.0,13,0.00,,,0.00,Wunderground v.1.15,2013-05-17 16:50:00,
2013-05-17 10:54:00,74.7,14.5,29.75,SSW,208,4.0,9.0,10,0.00,,,0.00,Wunderground v.1.15,2013-05-17 16:54:00,
2013-05-17 10:56:00,74.6,14.4,29.75,SW,220,5.0,9.0,10,0.00,,,0.00,Wunderground v.1.15,2013-05-17 16:56:00,
2013-05-17 10:58:00,74.4,18.4,29.75,SW,229,5.0,9.0,12,0.00,,,0.00,Wunderground v.1.15,2013-05-17 16:58:00,
2013-05-17 11:04:00,74.0,16.1,29.75,West,259,7.0,14.0,11,0.00,,,0.00,Wunderground v.1.15,2013-05-17 17:04:00,
2013-05-17 11:06:00,73.9,13.8,29.75,WSW,251,7.0,14.0,10,0.00,,,0.00,Wunderground v.1.15,2013-05-17 17:06:00,
2013-05-17 11:08:00,73.7,13.7,29.75,WSW,238,8.0,14.0,10,0.00,,,0.00,Wunderground v.1.15,2013-05-17 17:08:00,
2013-05-17 11:12:00,74.0,16.1,29.75,SSW,202,7.0,8.0,11,0.00,,,0.00,Wunderground v.1.15,2013-05-17 17:12:00,
2013-05-17 11:14:00,74.2,14.1,29.75,WSW,240,7.0,8.0,10,0.00,,,0.00,Wunderground v.1.15,2013-05-17 17:14:00,
2013-05-17 11:16:00,74.6,18.6,29.76,SSW,209,5.0,9.0,12,0.00,,,0.00,Wunderground v.1.15,2013-05-17 17:16:00,
2013-05-17 11:18:00,74.7,12.1,29.76,SSW,213,5.0,9.0,9,0.00,,,0.00,Wunderground v.1.15,2013-05-17 17:18:00,
2013-05-17 11:20:00,74.6,12.0,29.76,SW,216,5.0,5.0,9,0.00,,,0.00,Wunderground v.1.15,2013-05-17 17:20:00,
2013-05-17 11:26:00,74.6,14.4,29.76,WSW,257,7.0,16.0,10,0.00,,,0.00,Wunderground v.1.15,2013-05-17 17:26:00,
2013-05-17 11:28:00,74.6,18.6,29.76,West,274,7.0,16.0,12,0.00,,,0.00,Wunderground v.1.15,2013-05-17 17:28:00,
2013-05-17 11:32:00,75.1,17.0,29.75,SW,217,5.0,6.0,11,0.00,,,0.00,Wunderground v.1.15,2013-05-17 17:32:00,
2013-05-17 11:34:00,75.3,17.1,29.75,SSW,206,5.0,6.0,11,0.00,,,0.00,Wunderground v.1.15,2013-05-17 17:34:00,
2013-05-17 11:36:00,75.4,17.2,29.75,SW,223,5.0,6.0,11,0.00,,,0.00,Wunderground v.1.15,2013-05-17 17:36:00,
2013-05-17 11:38:00,75.8,15.3,29.75,WSW,246,4.0,6.0,10,0.00,,,0.00,Wunderground v.1.15,2013-05-17 17:38:00,
2013-05-17 11:42:00,75.3,12.5,29.75,SW,230,6.0,8.0,9,0.00,,,0.00,Wunderground v.1.15,2013-05-17 17:42:00,
2013-05-17 11:44:00,75.1,14.8,29.75,WSW,252,5.0,8.0,10,0.00,,,0.00,Wunderground v.1.15,2013-05-17 17:44:00,
2013-05-17 11:46:00,75.3,17.1,29.74,WSW,241,5.0,8.0,11,0.00,,,0.00,Wunderground v.1.15,2013-05-17 17:46:00,
2013-05-17 11:50:00,75.1,12.4,29.74,WSW,250,6.0,9.0,9,0.00,,,0.00,Wunderground v.1.15,2013-05-17 17:50:00,
2013-05-17 11:54:00,74.7,18.7,29.74,SW,215,7.0,9.0,12,0.00,,,0.00,Wunderground v.1.15,2013-05-17 17:54:00,
2013-05-17 11:56:00,75.1,14.8,29.74,SSW,202,7.0,9.0,10,0.00,,,0.00,Wunderground v.1.15,2013-05-17 17:56:00,
2013-05-17 11:58:00,75.3,14.9,29.74,NW,311,7.0,9.0,10,0.00,,,0.00,Wunderground v.1.15,2013-05-17 17:58:00,
2013-05-17 12:00:00,75.4,15.0,29.74,WNW,291,6.0,6.0,10,0.00,,,0.00,Wunderground v.1.15,2013-05-17 18:00:00,
2013-05-17 12:02:00,75.6,15.1,29.74,WSW,239,4.0,6.0,10,0.00,,,0.00,Wunderground v.1.15,2013-05-17 18:02:00,
2013-05-17 12:04:00,75.8,15.3,29.74,SW,231,4.0,6.0,10,0.00,,,0.00,Wunderground v.1.15,2013-05-17 18:04:00,
2013-05-17 12:08:00,76.1,15.5,29.74,West,262,4.0,6.0,10,0.00,,,0.00,Wunderground v.1.15,2013-05-17 18:08:00,
2013-05-17 12:10:00,76.5,15.8,29.74,SSW,209,4.0,17.0,10,0.00,,,0.00,Wunderground v.1.15,2013-05-17 18:10:00,
2013-05-17 12:14:00,76.5,15.8,29.74,SSW,200,5.0,17.0,10,0.00,,,0.00,Wunderground v.1.15,2013-05-17 18:14:00,
2013-05-17 12:18:00,76.1,15.5,29.73,SSE,157,5.0,17.0,10,0.00,,,0.00,Wunderground v.1.15,2013-05-17 18:18:00,
2013-05-17 12:20:00,76.1,13.1,29.73,SSE,163,5.0,5.0,9,0.00,,,0.00,Wunderground v.1.15,2013-05-17 18:20:00,
2013-05-17 12:22:00,76.3,17.9,29.73,WSW,240,4.0,5.0,11,0.00,,,0.00,Wunderground v.1.15,2013-05-17 18:22:00,
2013-05-17 12:24:00,76.5,20.1,29.73,WSW,252,3.0,7.0,12,0.00,,,0.00,Wunderground v.1.15,2013-05-17 18:24:00,
2013-05-17 12:26:00,76.5,13.4,29.73,SSW,199,3.0,7.0,9,0.00,,,0.00,Wunderground v.1.15,2013-05-17 18:26:00,
2013-05-17 12:32:00,76.8,16.1,29.72,SW,223,5.0,7.0,10,0.00,,,0.00,Wunderground v.1.15,2013-05-17 18:32:00,
2013-05-17 12:34:00,77.2,16.4,29.72,South,185,6.0,10.0,10,0.00,,,0.00,Wunderground v.1.15,2013-05-17 18:34:00,
2013-05-17 12:36:00,77.0,13.8,29.72,WSW,246,7.0,14.0,9,0.00,,,0.00,Wunderground v.1.15,2013-05-17 18:36:00,
2013-05-17 12:38:00,76.7,13.6,29.72,SW,233,9.0,14.0,9,0.00,,,0.00,Wunderground v.1.15,2013-05-17 18:38:00,
2013-05-17 12:40:00,76.5,10.7,29.72,WSW,242,8.0,14.0,8,0.00,,,0.00,Wunderground v.1.15,2013-05-17 18:40:00,
2013-05-17 12:44:00,76.7,18.2,29.72,SW,221,8.0,9.0,11,0.00,,,0.00,Wunderground v.1.15,2013-05-17 18:44:00,
2013-05-17 12:48:00,77.4,14.1,29.72,SW,234,5.0,9.0,9,0.00,,,0.00,Wunderground v.1.15,2013-05-17 18:48:00,
2013-05-17 12:50:00,77.4,16.5,29.72,WSW,243,6.0,9.0,10,0.00,,,0.00,Wunderground v.1.15,2013-05-17 18:50:00,
2013-05-17 12:52:00,77.6,11.6,29.72,South,190,6.0,12.0,8,0.00,,,0.00,Wunderground v.1.15,2013-05-17 18:52:00,
2013-05-17 12:56:00,77.2,16.4,29.72,SW,229,7.0,16.0,10,0.00,,,0.00,Wunderground v.1.15,2013-05-17 18:56:00,
2013-05-17 13:00:00,77.6,16.7,29.72,WSW,244,7.0,14.0,10,0.00,,,0.00,Wunderground v.1.15,2013-05-17 19:00:00,
2013-05-17 13:02:00,77.6,16.7,29.70,WSW,253,7.0,14.0,10,0.00,,,0.00,Wunderground v.1.15,2013-05-17 19:02:00,
2013-05-17 13:04:00,77.7,16.7,29.70,NW,324,5.0,14.0,10,0.00,,,0.00,Wunderground v.1.15,2013-05-17 19:04:00,
2013-05-17 13:08:00,78.5,17.4,29.70,SW,218,4.0,14.0,10,0.00,,,0.00,Wunderground v.1.15,2013-05-17 19:08:00,
2013-05-17 13:10:00,78.5,14.9,29.70,WSW,250,5.0,20.0,9,0.00,,,0.00,Wunderground v.1.15,2013-05-17 19:10:00,
2013-05-17 13:12:00,78.3,14.8,29.70,SSW,201,5.0,20.0,9,0.00,,,0.00,Wunderground v.1.15,2013-05-17 19:12:00,
2013-05-17 13:14:00,78.1,14.6,29.70,SW,234,7.0,20.0,9,0.00,,,0.00,Wunderground v.1.15,2013-05-17 19:14:00,
2013-05-17 13:16:00,78.1,14.6,29.70,WSW,251,8.0,20.0,9,0.00,,,0.00,Wunderground v.1.15,2013-05-17 19:16:00,
2013-05-17 13:18:00,78.3,14.8,29.70,South,186,8.0,20.0,9,0.00,,,0.00,Wunderground v.1.15,2013-05-17 19:18:00,
2013-05-17 13:20:00,78.1,8.9,29.70,SSE,165,8.0,8.0,7,0.00,,,0.00,Wunderground v.1.15,2013-05-17 19:20:00,
2013-05-17 13:26:00,78.1,14.6,29.70,SW,224,7.0,11.0,9,0.00,,,0.00,Wunderground v.1.15,2013-05-17 19:26:00,
2013-05-17 13:28:00,78.5,12.2,29.70,SW,226,7.0,15.0,8,0.00,,,0.00,Wunderground v.1.15,2013-05-17 19:28:00,
2013-05-17 13:32:00,78.5,12.2,29.69,WSW,246,9.0,16.0,8,0.00,,,0.00,Wunderground v.1.15,2013-05-17 19:32:00,
2013-05-17 13:36:00,78.1,8.9,29.69,South,179,10.0,16.0,7,0.00,,,0.00,Wunderground v.1.15,2013-05-17 19:36:00,
2013-05-17 13:38:00,78.1,11.9,29.69,SW,224,9.0,16.0,8,0.00,,,0.00,Wunderground v.1.15,2013-05-17 19:38:00,
2013-05-17 13:40:00,78.3,14.8,29.69,WSW,246,9.0,9.0,9,0.00,,,0.00,Wunderground v.1.15,2013-05-17 19:40:00,
2013-05-17 13:42:00,78.6,12.3,29.69,West,261,9.0,17.0,8,0.00,,,0.00,Wunderground v.1.15,2013-05-17 19:42:00,
2013-05-17 13:48:00,78.6,15.0,29.69,WSW,254,9.0,17.0,9,0.00,,,0.00,Wunderground v.1.15,2013-05-17 19:48:00,
2013-05-17 13:50:00,79.0,15.3,29.69,West,274,8.0,8.0,9,0.00,,,0.00,Wunderground v.1.15,2013-05-17 19:50:00,
2013-05-17 13:52:00,79.4,15.6,29.69,WSW,243,6.0,14.0,9,0.00,,,0.00,Wunderground v.1.15,2013-05-17 19:52:00,
2013-05-17 13:56:00,79.0,9.6,29.69,WSW,258,7.0,14.0,7,0.00,,,0.00,Wunderground v.1.15,2013-05-17 19:56:00,
2013-05-17 14:00:00,79.0,15.3,29.69,WSW,245,7.0,8.0,9,0.00,,,0.00,Wunderground v.1.15,2013-05-17 20:00:00,
2013-05-17 14:02:00,78.8,12.5,29.69,East,92,8.0,8.0,8,0.00,,,0.00,Wunderground v.1.15,2013-05-17 20:02:00,
2013-05-17 14:06:00,78.6,12.3,29.69,SW,232,8.0,17.0,8,0.00,,,0.00,Wunderground v.1.15,2013-05-17 20:06:00,
2013-05-17 14:08:00,78.8,15.1,29.69,WSW,257,8.0,17.0,9,0.00,,,0.00,Wunderground v.1.15,2013-05-17 20:08:00,
2013-05-17 14:10:00,79.0,9.6,29.69,West,267,9.0,9.0,7,0.00,,,0.00,Wunderground v.1.15,2013-05-17 20:10:00,
2013-05-17 14:14:00,79.2,17.9,29.69,WSW,257,8.0,9.0,10,0.00,,,0.00,Wunderground v.1.15,2013-05-17 20:14:00,
2013-05-17 14:16:00,79.6,15.8,29.66,SW,227,6.0,9.0,9,0.00,,,0.00,Wunderground v.1.15,2013-05-17 20:16:00,
2013-05-17 14:20:00,79.9,13.3,29.66,SW,235,6.0,18.0,8,0.00,,,0.00,Wunderground v.1.15,2013-05-17 20:20:00,
2013-05-17 14:22:00,79.4,12.9,29.66,SW,233,6.0,18.0,8,0.00,,,0.00,Wunderground v.1.15,2013-05-17 20:22:00,
2013-05-17 14:24:00,79.4,15.6,29.66,WSW,241,6.0,18.0,9,0.00,,,0.00,Wunderground v.1.15,2013-05-17 20:24:00,
2013-05-17 14:28:00,79.9,13.3,29.66,SW,221,7.0,18.0,8,0.00,,,0.00,Wunderground v.1.15,2013-05-17 20:28:00,
2013-05-17 14:32:00,79.2,9.8,29.65,WNW,284,7.0,11.0,7,0.00,,,0.00,Wunderground v.1.15,2013-05-17 20:32:00,
2013-05-17 14:36:00,79.0,12.6,29.65,WSW,240,7.0,11.0,8,0.00,,,0.00,Wunderground v.1.15,2013-05-17 20:36:00,
2013-05-17 14:40:00,78.6,12.3,29.65,WSW,242,7.0,7.0,8,0.00,,,0.00,Wunderground v.1.15,2013-05-17 20:40:00,
2013-05-17 14:42:00,78.6,12.3,29.65,South,190,7.0,7.0,8,0.00,,,0.00,Wunderground v.1.15,2013-05-17 20:42:00,
2013-05-17 14:46:00,78.5,12.2,29.66,SW,217,8.0,13.0,8,0.00,,,0.00,Wunderground v.1.15,2013-05-17 20:46:00,
2013-05-17 14:48:00,78.1,14.6,29.66,WSW,257,7.0,13.0,9,0.00,,,0.00,Wunderground v.1.15,2013-05-17 20:48:00,
2013-05-17 14:54:00,77.9,11.8,29.66,WSW,254,9.0,12.0,8,0.00,,,0.00,Wunderground v.1.15,2013-05-17 20:54:00,
2013-05-17 14:56:00,77.9,14.5,29.66,SW,215,8.0,12.0,9,0.00,,,0.00,Wunderground v.1.15,2013-05-17 20:56:00,
2013-05-17 14:58:00,78.1,14.6,29.66,SW,215,9.0,12.0,9,0.00,,,0.00,Wunderground v.1.15,2013-05-17 20:58:00,
2013-05-17 15:00:00,77.9,11.8,29.66,SW,225,10.0,10.0,8,0.00,,,0.00,Wunderground v.1.15,2013-05-17 21:00:00,
2013-05-17 15:04:00,77.9,11.8,29.65,SW,225,9.0,10.0,8,0.00,,,0.00,Wunderground v.1.15,2013-05-17 21:04:00,
2013-05-17 15:06:00,78.1,17.0,29.65,WSW,243,9.0,10.0,10,0.00,,,0.00,Wunderground v.1.15,2013-05-17 21:06:00,
2013-05-17 15:08:00,78.5,14.9,29.65,WSW,242,7.0,10.0,9,0.00,,,0.00,Wunderground v.1.15,2013-05-17 21:08:00,
2013-05-17 15:10:00,78.5,14.9,29.65,SSW,195,6.0,6.0,9,0.00,,,0.00,Wunderground v.1.15,2013-05-17 21:10:00,
2013-05-17 15:12:00,78.8,12.5,29.65,SW,215,6.0,6.0,8,0.00,,,0.00,Wunderground v.1.15,2013-05-17 21:12:00,
2013-05-17 15:16:00,78.8,15.1,29.64,WSW,241,5.0,6.0,9,0.00,,,0.00,Wunderground v.1.15,2013-05-17 21:16:00,
2013-05-17 15:18:00,79.0,15.3,29.64,SW,234,6.0,8.0,9,0.00,,,0.00,Wunderground v.1.15,2013-05-17 21:18:00,
2013-05-17 15:20:00,79.0,15.3,29.64,SW,225,6.0,6.0,9,0.00,,,0.00,Wunderground v.1.15,2013-05-17 21:20:00,
2013-05-17 15:22:00,78.8,12.5,29.64,SW,236,6.0,6.0,8,0.00,,,0.00,Wunderground v.1.15,2013-05-17 21:22:00,
2013-05-17 15:26:00,78.6,15.0,29.64,WSW,237,6.0,7.0,9,0.00,,,0.00,Wunderground v.1.15,2013-05-17 21:26:00,
2013-05-17 15:28:00,78.6,15.0,29.64,SW,219,6.0,7.0,9,0.00,,,0.00,Wunderground v.1.15,2013-05-17 21:28:00,
2013-05-17 15:32:00,78.5,17.4,29.64,WNW,282,6.0,7.0,10,0.00,,,0.00,Wunderground v.1.15,2013-05-17 21:32:00,
2013-05-17 15:34:00,78.6,12.3,29.64,WSW,242,6.0,7.0,8,0.00,,,0.00,Wunderground v.1.15,2013-05-17 21:34:00,
2013-05-17 15:38:00,78.8,12.5,29.64,WSW,255,5.0,7.0,8,0.00,,,0.00,Wunderground v.1.15,2013-05-17 21:38:00,
2013-05-17 15:40:00,79.0,12.6,29.64,SW,236,5.0,6.0,8,0.00,,,0.00,Wunderground v.1.15,2013-05-17 21:40:00,
2013-05-17 15:44:00,78.6,12.3,29.64,WSW,250,7.0,10.0,8,0.00,,,0.00,Wunderground v.1.15,2013-05-17 21:44:00,
2013-05-17 15:46:00,78.5,14.9,29.63,SW,234,8.0,13.0,9,0.00,,,0.00,Wunderground v.1.15,2013-05-17 21:46:00,
2013-05-17 15:52:00,78.3,17.2,29.63,SW,228,8.0,12.0,10,0.00,,,0.00,Wunderground v.1.15,2013-05-17 21:52:00,
2013-05-17 15:54:00,78.3,17.2,29.63,SSW,207,8.0,12.0,10,0.00,,,0.00,Wunderground v.1.15,2013-05-17 21:54:00,
2013-05-17 15:56:00,78.5,14.9,29.63,SSW,208,7.0,12.0,9,0.00,,,0.00,Wunderground v.1.15,2013-05-17 21:56:00,
2013-05-17 15:58:00,78.5,14.9,29.63,West,271,7.0,12.0,9,0.00,,,0.00,Wunderground v.1.15,2013-05-17 21:58:00,
2013-05-17 16:02:00,78.5,12.2,29.63,WNW,299,8.0,8.0,8,0.00,,,0.00,Wunderground v.1.15,2013-05-17 22:02:00,
2013-05-17 16:04:00,78.3,12.1,29.63,WSW,254,8.0,8.0,8,0.00,,,0.00,Wunderground v.1.15,2013-05-17 22:04:00,
2013-05-17 16:06:00,78.1,11.9,29.63,WSW,238,8.0,25.0,8,0.00,,,0.00,Wunderground v.1.15,2013-05-17 22:06:00,
2013-05-17 16:10:00,77.6,11.6,29.63,WSW,240,9.0,12.0,8,0.00,,,0.00,Wunderground v.1.15,2013-05-17 22:10:00,
2013-05-17 16:12:00,77.4,11.4,29.63,SW,225,8.0,12.0,8,0.00,,,0.00,Wunderground v.1.15,2013-05-17 22:12:00,
2013-05-17 16:14:00,77.4,11.4,29.63,WSW,238,7.0,12.0,8,0.00,,,0.00,Wunderground v.1.15,2013-05-17 22:14:00,
2013-05-17 16:16:00,77.6,14.2,29.65,WNW,296,7.0,12.0,9,0.00,,,0.00,Wunderground v.1.15,2013-05-17 22:16:00,
2013-05-17 16:20:00,77.4,8.4,29.65,NNE,31,5.0,9.0,7,0.00,,,0.00,Wunderground v.1.15,2013-05-17 22:20:00,
2013-05-17 16:22:00,77.0,11.1,29.65,SW,221,6.0,12.0,8,0.00,,,0.00,Wunderground v.1.15,2013-05-17 22:22:00,
2013-05-17 16:24:00,76.8,11.0,29.65,SW,225,7.0,12.0,8,0.00,,,0.00,Wunderground v.1.15,2013-05-17 22:24:00,
2013-05-17 16:26:00,76.8,13.6,29.65,SW,232,8.0,12.0,9,0.00,,,0.00,Wunderground v.1.15,2013-05-17 22:26:00,
2013-05-17 16:30:00,76.8,13.6,29.65,SW,231,9.0,9.0,9,0.00,,,0.00,Wunderground v.1.15,2013-05-17 22:30:00,
2013-05-17 16:32:00,76.7,16.0,29.66,SW,231,8.0,9.0,10,0.00,,,0.00,Wunderground v.1.15,2013-05-17 22:32:00,
2013-05-17 16:36:00,76.7,13.6,29.66,West,265,6.0,16.0,9,0.00,,,0.00,Wunderground v.1.15,2013-05-17 22:36:00,
2013-05-17 16:38:00,76.7,13.6,29.66,SW,229,6.0,16.0,9,0.00,,,0.00,Wunderground v.1.15,2013-05-17 22:38:00,
2013-05-17 16:40:00,76.7,10.9,29.66,WSW,238,6.0,9.0,8,0.00,,,0.00,Wunderground v.1.15,2013-05-17 22:40:00,
2013-05-17 16:42:00,76.5,13.4,29.66,WSW,242,6.0,9.0,9,0.00,,,0.00,Wunderground v.1.15,2013-05-17 22:42:00,
2013-05-17 16:44:00,76.3,10.6,29.66,WNW,296,6.0,9.0,8,0.00,,,0.00,Wunderground v.1.15,2013-05-17 22:44:00,
2013-05-17 16:46:00,76.1,10.4,29.66,West,275,6.0,9.0,8,0.00,,,0.00,Wunderground v.1.15,2013-05-17 22:46:00,
2013-05-17 16:50:00,76.0,10.4,29.66,WSW,238,7.0,19.0,8,0.00,,,0.00,Wunderground v.1.15,2013-05-17 22:50:00,
2013-05-17 16:54:00,76.1,13.1,29.66,WSW,246,7.0,19.0,9,0.00,,,0.00,Wunderground v.1.15,2013-05-17 22:54:00,
2013-05-17 16:56:00,76.3,10.6,29.66,SW,226,8.0,19.0,8,0.00,,,0.00,Wunderground v.1.15,2013-05-17 22:56:00,
2013-05-17 17:00:00,76.3,10.6,29.66,WSW,239,9.0,16.0,8,0.00,,,0.00,Wunderground v.1.15,2013-05-17 23:00:00,
2013-05-17 17:02:00,76.1,10.4,29.66,SW,227,9.0,16.0,8,0.00,,,0.00,Wunderground v.1.15,2013-05-17 23:02:00,
2013-05-17 17:04:00,76.1,13.1,29.66,WSW,257,10.0,16.0,9,0.00,,,0.00,Wunderground v.1.15,2013-05-17 23:04:00,
2013-05-17 17:06:00,76.1,13.1,29.66,SW,219,9.0,18.0,9,0.00,,,0.00,Wunderground v.1.15,2013-05-17 23:06:00,
2013-05-17 17:08:00,76.0,7.4,29.66,SW,234,10.0,18.0,7,0.00,,,0.00,Wunderground v.1.15,2013-05-17 23:08:00,
2013-05-17 17:10:00,76.0,10.4,29.66,SW,236,9.0,10.0,8,0.00,,,0.00,Wunderground v.1.15,2013-05-17 23:10:00,
2013-05-17 17:12:00,76.0,13.0,29.66,South,191,8.0,11.0,9,0.00,,,0.00,Wunderground v.1.15,2013-05-17 23:12:00,
2013-05-17 17:14:00,76.0,10.4,29.66,WNW,283,8.0,11.0,8,0.00,,,0.00,Wunderground v.1.15,2013-05-17 23:14:00,
2013-05-17 17:18:00,75.8,10.2,29.66,SW,226,9.0,13.0,8,0.00,,,0.00,Wunderground v.1.15,2013-05-17 23:18:00,
2013-05-17 17:20:00,75.8,10.2,29.66,WSW,250,9.0,9.0,8,0.00,,,0.00,Wunderground v.1.15,2013-05-17 23:20:00,
2013-05-17 17:22:00,75.8,10.2,29.66,SW,232,9.0,9.0,8,0.00,,,0.00,Wunderground v.1.15,2013-05-17 23:22:00,
2013-05-17 17:26:00,76.0,10.4,29.66,WSW,240,8.0,10.0,8,0.00,,,0.00,Wunderground v.1.15,2013-05-17 23:26:00,
2013-05-17 17:32:00,75.6,7.1,29.66,SW,217,10.0,10.0,7,0.00,,,0.00,Wunderground v.1.15,2013-05-17 23:32:00,
2013-05-17 17:34:00,75.4,9.9,29.66,WSW,252,11.0,11.0,8,0.00,,,0.00,Wunderground v.1.15,2013-05-17 23:34:00,
2013-05-17 17:36:00,75.3,6.9,29.66,SW,224,11.0,11.0,7,0.00,,,0.00,Wunderground v.1.15,2013-05-17 23:36:00,
2013-05-17 17:40:00,75.1,9.7,29.66,South,178,11.0,11.0,8,0.00,,,0.00,Wunderground v.1.15,2013-05-17 23:40:00,
2013-05-17 17:42:00,75.3,9.9,29.66,SSW,202,10.0,11.0,8,0.00,,,0.00,Wunderground v.1.15,2013-05-17 23:42:00,
2013-05-17 17:46:00,75.1,6.7,29.66,SW,225,10.0,13.0,7,0.00,,,0.00,Wunderground v.1.15,2013-05-17 23:46:00,
2013-05-17 17:48:00,75.1,6.7,29.66,SW,231,10.0,13.0,7,0.00,,,0.00,Wunderground v.1.15,2013-05-17 23:48:00,
2013-05-17 17:52:00,75.1,9.7,29.66,WSW,237,10.0,15.0,8,0.00,,,0.00,Wunderground v.1.15,2013-05-17 23:52:00,
2013-05-17 17:54:00,75.1,9.7,29.66,SW,227,10.0,15.0,8,0.00,,,0.00,Wunderground v.1.15,2013-05-17 23:54:00,
2013-05-17 17:58:00,74.9,6.6,29.66,WSW,238,9.0,15.0,7,0.00,,,0.00,Wunderground v.1.15,2013-05-17 23:58:00,
2013-05-17 18:00:00,74.9,9.6,29.66,SW,231,8.0,10.0,8,0.00,,,0.00,Wunderground v.1.15,2013-05-18 00:00:00,
2013-05-17 18:02:00,74.9,12.2,29.66,SW,229,9.0,10.0,9,0.00,,,0.00,Wunderground v.1.15,2013-05-18 00:02:00,
2013-05-17 18:04:00,74.9,6.6,29.66,SW,232,8.0,10.0,7,0.00,,,0.00,Wunderground v.1.15,2013-05-18 00:04:00,
2013-05-17 18:08:00,74.9,9.6,29.66,SW,221,7.0,20.0,8,0.00,,,0.00,Wunderground v.1.15,2013-05-18 00:08:00,
2013-05-17 18:10:00,74.9,6.6,29.66,WSW,240,9.0,11.0,7,0.00,,,0.00,Wunderground v.1.15,2013-05-18 00:10:00,
2013-05-17 18:16:00,74.9,9.6,29.67,SSW,194,10.0,11.0,8,0.00,,,0.00,Wunderground v.1.15,2013-05-18 00:16:00,
2013-05-17 18:20:00,74.7,9.4,29.67,WNW,285,8.0,8.0,8,0.00,,,0.00,Wunderground v.1.15,2013-05-18 00:20:00,
2013-05-17 18:22:00,74.7,9.4,29.67,SW,232,7.0,10.0,8,0.00,,,0.00,Wunderground v.1.15,2013-05-18 00:22:00,
2013-05-17 18:24:00,74.7,9.4,29.67,SW,236,7.0,10.0,8,0.00,,,0.00,Wunderground v.1.15,2013-05-18 00:24:00,
2013-05-17 18:26:00,74.7,9.4,29.67,WSW,237,7.0,10.0,8,0.00,,,0.00,Wunderground v.1.15,2013-05-18 00:26:00,
2013-05-17 18:28:00,74.7,9.4,29.67,SW,218,7.0,10.0,8,0.00,,,0.00,Wunderground v.1.15,2013-05-18 00:28:00,
2013-05-17 18:30:00,74.7,9.4,29.67,SW,235,8.0,10.0,8,0.00,,,0.00,Wunderground v.1.15,2013-05-18 00:30:00,
2013-05-17 18:32:00,74.6,9.3,29.67,SW,219,8.0,10.0,8,0.00,,,0.00,Wunderground v.1.15,2013-05-18 00:32:00,
2013-05-17 18:38:00,74.2,11.7,29.67,SW,220,8.0,10.0,9,0.00,,,0.00,Wunderground v.1.15,2013-05-18 00:38:00,
2013-05-17 18:40:00,74.2,9.0,29.67,SW,236,8.0,8.0,8,0.00,,,0.00,Wunderground v.1.15,2013-05-18 00:40:00,
2013-05-17 18:42:00,74.2,11.7,29.67,SW,226,6.0,8.0,9,0.00,,,0.00,Wunderground v.1.15,2013-05-18 00:42:00,
2013-05-17 18:44:00,74.0,11.5,29.67,WSW,242,6.0,8.0,9,0.00,,,0.00,Wunderground v.1.15,2013-05-18 00:44:00,
2013-05-17 18:48:00,73.9,11.4,29.69,SW,234,5.0,8.0,9,0.00,,,0.00,Wunderground v.1.15,2013-05-18 00:48:00,
2013-05-17 18:50:00,73.9,11.4,29.69,West,263,4.0,4.0,9,0.00,,,0.00,Wunderground v.1.15,2013-05-18 00:50:00,
2013-05-17 18:52:00,73.9,11.4,29.69,WSW,241,4.0,4.0,9,0.00,,,0.00,Wunderground v.1.15,2013-05-18 00:52:00,
2013-05-17 18:54:00,73.7,11.3,29.69,WSW,257,4.0,10.0,9,0.00,,,0.00,Wunderground v.1.15,2013-05-18 00:54:00,
2013-05-17 18:58:00,73.7,11.3,29.69,WSW,257,5.0,10.0,9,0.00,,,0.00,Wunderground v.1.15,2013-05-18 00:58:00,
2013-05-17 19:00:00,73.7,11.3,29.69,WSW,246,5.0,5.0,9,0.00,,,0.00,Wunderground v.1.15,2013-05-18 01:00:00,
2013-05-17 19:02:00,73.7,8.7,29.69,SW,219,6.0,6.0,8,0.00,,,0.00,Wunderground v.1.15,2013-05-18 01:02:00,
2013-05-17 19:08:00,73.7,11.3,29.69,SW,231,7.0,12.0,9,0.00,,,0.00,Wunderground v.1.15,2013-05-18 01:08:00,
2013-05-17 19:10:00,73.7,11.3,29.69,SW,232,7.0,13.0,9,0.00,,,0.00,Wunderground v.1.15,2013-05-18 01:10:00,
2013-05-17 19:12:00,73.7,13.7,29.69,WSW,244,8.0,16.0,10,0.00,,,0.00,Wunderground v.1.15,2013-05-18 01:12:00,
2013-05-17 19:16:00,73.5,8.5,29.65,SW,227,9.0,16.0,8,0.00,,,0.00,Wunderground v.1.15,2013-05-18 01:16:00,
2013-05-17 19:20:00,73.5,11.1,29.65,WSW,246,9.0,9.0,9,0.00,,,0.00,Wunderground v.1.15,2013-05-18 01:20:00,
2013-05-17 19:22:00,73.3,11.0,29.65,WSW,238,8.0,9.0,9,0.00,,,0.00,Wunderground v.1.15,2013-05-18 01:22:00,
2013-05-17 19:26:00,73.0,13.1,29.65,WSW,238,6.0,9.0,10,0.00,,,0.00,Wunderground v.1.15,2013-05-18 01:26:00,
2013-05-17 19:28:00,72.8,13.0,29.65,WSW,244,5.0,9.0,10,0.00,,,0.00,Wunderground v.1.15,2013-05-18 01:28:00,
2013-05-17 19:30:00,72.8,13.0,29.65,SW,223,5.0,5.0,10,0.00,,,0.00,Wunderground v.1.15,2013-05-18 01:30:00,
2013-05-17 19:34:00,72.5,12.8,29.67,West,259,5.0,5.0,10,0.00,,,0.00,Wunderground v.1.15,2013-05-18 01:34:00,
2013-05-17 19:38:00,72.3,10.2,29.67,SW,236,5.0,5.0,9,0.00,,,0.00,Wunderground v.1.15,2013-05-18 01:38:00,
2013-05-17 19:40:00,72.3,12.6,29.67,WSW,242,5.0,5.0,10,0.00,,,0.00,Wunderground v.1.15,2013-05-18 01:40:00,
2013-05-17 19:42:00,72.1,12.5,29.67,SW,223,5.0,10.0,10,0.00,,,0.00,Wunderground v.1.15,2013-05-18 01:42:00,
2013-05-17 19:46:00,72.0,12.4,29.68,SW,232,5.0,10.0,10,0.00,,,0.00,Wunderground v.1.15,2013-05-18 01:46:00,
2013-05-17 19:48:00,71.8,12.2,29.68,WSW,250,5.0,10.0,10,0.00,,,0.00,Wunderground v.1.15,2013-05-18 01:48:00,
2013-05-17 19:52:00,71.6,12.1,29.68,SW,234,5.0,6.0,10,0.00,,,0.00,Wunderground v.1.15,2013-05-18 01:52:00,
2013-05-17 19:54:00,71.6,9.7,29.68,WSW,242,4.0,6.0,9,0.00,,,0.00,Wunderground v.1.15,2013-05-18 01:54:00,
2013-05-17 19:56:00,71.5,12.0,29.68,SW,235,4.0,6.0,10,0.00,,,0.00,Wunderground v.1.15,2013-05-18 01:56:00,
2013-05-17 20:00:00,71.1,11.7,29.68,WSW,239,4.0,4.0,10,0.00,,,0.00,Wunderground v.1.15,2013-05-18 02:00:00,
2013-05-17 20:02:00,70.9,11.5,29.69,WSW,238,4.0,4.0,10,0.00,,,0.00,Wunderground v.1.15,2013-05-18 02:02:00,
2013-05-17 20:04:00,70.9,11.5,29.69,WSW,238,4.0,4.0,10,0.00,,,0.00,Wunderground v.1.15,2013-05-18 02:04:00,
2013-05-17 20:08:00,70.8,11.5,29.69,WSW,254,4.0,5.0,10,0.00,,,0.00,Wunderground v.1.15,2013-05-18 02:08:00,
2013-05-17 20:10:00,70.6,11.3,29.69,SW,234,5.0,5.0,10,0.00,,,0.00,Wunderground v.1.15,2013-05-18 02:10:00,
2013-05-17 20:12:00,70.6,11.3,29.69,SW,234,4.0,5.0,10,0.00,,,0.00,Wunderground v.1.15,2013-05-18 02:12:00,
2013-05-17 20:18:00,69.9,12.9,29.67,SW,235,2.0,5.0,11,0.00,,,0.00,Wunderground v.1.15,2013-05-18 02:18:00,
2013-05-17 20:22:00,69.6,12.7,29.67,WSW,239,2.0,2.0,11,0.00,,,0.00,Wunderground v.1.15,2013-05-18 02:22:00,
2013-05-17 20:24:00,69.4,14.5,29.67,WSW,238,2.0,2.0,12,0.00,,,0.00,Wunderground v.1.15,2013-05-18 02:24:00,
2013-05-17 20:30:00,68.9,14.1,29.67,SW,231,1.0,3.0,12,0.00,,,0.00,Wunderground v.1.15,2013-05-18 02:30:00,
2013-05-17 20:34:00,68.8,14.1,29.68,SW,223,2.0,5.0,12,0.00,,,0.00,Wunderground v.1.15,2013-05-18 02:34:00,
2013-05-17 20:38:00,68.4,13.7,29.68,SW,235,2.0,6.0,12,0.00,,,0.00,Wunderground v.1.15,2013-05-18 02:38:00,
2013-05-17 20:40:00,68.4,13.7,29.68,WSW,255,2.0,6.0,12,0.00,,,0.00,Wunderground v.1.15,2013-05-18 02:40:00,
2013-05-17 20:42:00,68.4,13.7,29.68,SW,227,2.0,6.0,12,0.00,,,0.00,Wunderground v.1.15,2013-05-18 02:42:00,
2013-05-17 20:44:00,68.4,13.7,29.68,WSW,255,2.0,6.0,12,0.00,,,0.00,Wunderground v.1.15,2013-05-18 02:44:00,
2013-05-17 20:46:00,68.3,15.5,29.70,WSW,255,2.0,6.0,13,0.00,,,0.00,Wunderground v.1.15,2013-05-18 02:46:00,
2013-05-17 20:48:00,68.3,15.5,29.70,WSW,238,2.0,6.0,13,0.00,,,0.00,Wunderground v.1.15,2013-05-18 02:48:00,
2013-05-17 20:52:00,68.1,13.5,29.70,WSW,241,3.0,3.0,12,0.00,,,0.00,Wunderground v.1.15,2013-05-18 02:52:00,
2013-05-17 20:56:00,68.1,15.3,29.70,WSW,237,3.0,5.0,13,0.00,,,0.00,Wunderground v.1.15,2013-05-18 02:56:00,
2013-05-17 20:58:00,67.9,15.2,29.70,SSW,198,3.0,5.0,13,0.00,,,0.00,Wunderground v.1.15,2013-05-18 02:58:00,
2013-05-17 21:00:00,67.9,15.2,29.70,SSW,198,3.0,3.0,13,0.00,,,0.00,Wunderground v.1.15,2013-05-18 03:00:00,
2013-05-17 21:02:00,67.8,15.1,29.70,SSW,199,2.0,3.0,13,0.00,,,0.00,Wunderground v.1.15,2013-05-18 03:02:00,
2013-05-17 21:06:00,67.4,16.5,29.70,SW,231,2.0,3.0,14,0.00,,,0.00,Wunderground v.1.15,2013-05-18 03:06:00,
2013-05-17 21:08:00,67.3,16.4,29.70,SW,232,1.0,3.0,14,0.00,,,0.00,Wunderground v.1.15,2013-05-18 03:08:00,
2013-05-17 21:12:00,67.1,16.3,29.70,SW,224,1.0,4.0,14,0.00,,,0.00,Wunderground v.1.15,2013-05-18 03:12:00,
2013-05-17 21:14:00,66.9,16.1,29.70,SW,225,1.0,4.0,14,0.00,,,0.00,Wunderground v.1.15,2013-05-18 03:14:00,
2013-05-17 21:16:00,66.9,16.1,29.70,SW,221,1.0,4.0,14,0.00,,,0.00,Wunderground v.1.15,2013-05-18 03:16:00,
2013-05-17 21:18:00,66.9,14.4,29.70,South,186,1.0,4.0,13,0.00,,,0.00,Wunderground v.1.15,2013-05-18 03:18:00,
2013-05-17 21:20:00,66.8,16.0,29.70,SSW,196,2.0,2.0,14,0.00,,,0.00,Wunderground v.1.15,2013-05-18 03:20:00,
2013-05-17 21:24:00,66.6,15.9,29.70,SSW,203,2.0,3.0,14,0.00,,,0.00,Wunderground v.1.15,2013-05-18 03:24:00,
2013-05-17 21:26:00,66.6,15.9,29.70,SSW,204,2.0,3.0,14,0.00,,,0.00,Wunderground v.1.15,2013-05-18 03:26:00,
2013-05-17 21:32:00,66.4,15.7,29.71,SSW,204,1.0,2.0,14,0.00,,,0.00,Wunderground v.1.15,2013-05-18 03:32:00,
2013-05-17 21:34:00,66.3,17.2,29.71,SSW,203,1.0,3.0,15,0.00,,,0.00,Wunderground v.1.15,2013-05-18 03:34:00,
2013-05-17 21:36:00,66.3,17.2,29.71,SSW,203,1.0,3.0,15,0.00,,,0.00,Wunderground v.1.15,2013-05-18 03:36:00,
2013-05-17 21:38:00,66.3,17.2,29.71,SSW,204,1.0,3.0,15,0.00,,,0.00,Wunderground v.1.15,2013-05-18 03:38:00,
2013-05-17 21:42:00,66.1,17.0,29.71,SSW,204,1.0,1.0,15,0.00,,,0.00,Wunderground v.1.15,2013-05-18 03:42:00,
2013-05-17 21:44:00,66.0,17.0,29.71,SSW,203,1.0,4.0,15,0.00,,,0.00,Wunderground v.1.15,2013-05-18 03:44:00,
2013-05-17 21:46:00,65.8,16.8,29.72,SSW,203,1.0,4.0,15,0.00,,,0.00,Wunderground v.1.15,2013-05-18 03:46:00,
2013-05-17 21:48:00,65.6,16.6,29.72,SW,217,1.0,4.0,15,0.00,,,0.00,Wunderground v.1.15,2013-05-18 03:48:00,
2013-05-17 21:50:00,65.6,16.6,29.72,SW,217,1.0,1.0,15,0.00,,,0.00,Wunderground v.1.15,2013-05-18 03:50:00,
2013-05-17 21:52:00,65.5,16.6,29.72,SW,217,1.0,1.0,15,0.00,,,0.00,Wunderground v.1.15,2013-05-18 03:52:00,
2013-05-17 21:54:00,65.5,18.1,29.72,SW,217,1.0,3.0,16,0.00,,,0.00,Wunderground v.1.15,2013-05-18 03:54:00,
2013-05-17 21:56:00,65.3,16.4,29.72,SW,217,1.0,3.0,15,0.00,,,0.00,Wunderground v.1.15,2013-05-18 03:56:00,
2013-05-17 21:58:00,65.2,17.8,29.72,SW,217,0.0,3.0,16,0.00,,,0.00,Wunderground v.1.15,2013-05-18 03:58:00,
2013-05-17 22:02:00,64.0,18.3,29.73,SE,138,1.0,1.0,17,0.00,,,0.00,Wunderground v.1.15,2013-05-18 04:02:00,
2013-05-17 22:04:00,63.7,18.0,29.73,SE,139,1.0,1.0,17,0.00,,,0.00,Wunderground v.1.15,2013-05-18 04:04:00,
2013-05-17 22:08:00,63.1,17.5,29.73,SE,139,0.0,1.0,17,0.00,,,0.00,Wunderground v.1.15,2013-05-18 04:08:00,
2013-05-17 22:10:00,62.7,17.2,29.73,SE,138,0.0,1.0,17,0.00,,,0.00,Wunderground v.1.15,2013-05-18 04:10:00,
2013-05-17 22:14:00,62.3,18.2,29.73,SE,138,0.0,1.0,18,0.00,,,0.00,Wunderground v.1.15,2013-05-18 04:14:00,
2013-05-17 22:16:00,62.0,18.0,29.74,SE,138,0.0,1.0,18,0.00,,,0.00,Wunderground v.1.15,2013-05-18 04:16:00,
2013-05-17 22:18:00,61.8,19.0,29.74,SE,139,0.0,1.0,19,0.00,,,0.00,Wunderground v.1.15,2013-05-18 04:18:00,
2013-05-17 22:22:00,61.3,18.6,29.74,SE,135,0.0,3.0,19,0.00,,,0.00,Wunderground v.1.15,2013-05-18 04:22:00,
2013-05-17 22:24:00,61.2,17.3,29.74,SE,135,0.0,3.0,18,0.00,,,0.00,Wunderground v.1.15,2013-05-18 04:24:00,
2013-05-17 22:28:00,61.0,17.1,29.74,SE,135,0.0,3.0,18,0.00,,,0.00,Wunderground v.1.15,2013-05-18 04:28:00,
2013-05-17 22:32:00,61.0,17.1,29.75,SE,133,0.0,0.0,18,0.00,,,0.00,Wunderground v.1.15,2013-05-18 04:32:00,
2013-05-17 22:34:00,61.0,17.1,29.75,SE,133,0.0,0.0,18,0.00,,,0.00,Wunderground v.1.15,2013-05-18 04:34:00,
2013-05-17 22:36:00,61.0,18.4,29.75,SE,133,0.0,0.0,19,0.00,,,0.00,Wunderground v.1.15,2013-05-18 04:36:00,
2013-05-17 22:40:00,61.0,18.4,29.75,SE,133,0.0,0.0,19,0.00,,,0.00,Wunderground v.1.15,2013-05-18 04:40:00,
2013-05-17 22:42:00,61.0,19.6,29.75,SE,133,0.0,0.0,20,0.00,,,0.00,Wunderground v.1.15,2013-05-18 04:42:00,
2013-05-17 22:44:00,60.9,19.5,29.75,SE,133,0.0,0.0,20,0.00,,,0.00,Wunderground v.1.15,2013-05-18 04:44:00,
2013-05-17 22:46:00,60.7,19.3,29.76,SE,133,0.0,0.0,20,0.00,,,0.00,Wunderground v.1.15,2013-05-18 04:46:00,
2013-05-17 22:48:00,60.4,19.1,29.76,SE,133,0.0,0.0,20,0.00,,,0.00,Wunderground v.1.15,2013-05-18 04:48:00,
2013-05-17 22:52:00,60.4,17.9,29.76,SE,126,0.0,0.0,19,0.00,,,0.00,Wunderground v.1.15,2013-05-18 04:52:00,
2013-05-17 22:54:00,60.4,20.2,29.76,SE,126,0.0,0.0,21,0.00,,,0.00,Wunderground v.1.15,2013-05-18 04:54:00,
2013-05-17 22:56:00,60.2,18.9,29.76,SE,126,0.0,0.0,20,0.00,,,0.00,Wunderground v.1.15,2013-05-18 04:56:00,
2013-05-17 22:58:00,60.2,20.1,29.76,SE,126,0.0,0.0,21,0.00,,,0.00,Wunderground v.1.15,2013-05-18 04:58:00,
2013-05-17 23:00:00,60.1,18.8,29.76,SE,126,0.0,0.0,20,0.00,,,0.00,Wunderground v.1.15,2013-05-18 05:00:00,
2013-05-17 23:02:00,60.1,20.0,29.76,SE,127,0.0,0.0,21,0.00,,,0.00,Wunderground v.1.15,2013-05-18 05:02:00,
2013-05-17 23:06:00,59.9,19.8,29.76,SE,126,0.0,2.0,21,0.00,,,0.00,Wunderground v.1.15,2013-05-18 05:06:00,
2013-05-17 23:08:00,59.8,20.8,29.76,SE,126,0.0,2.0,22,0.00,,,0.00,Wunderground v.1.15,2013-05-18 05:08:00,
2013-05-17 23:10:00,59.5,20.6,29.76,SE,126,0.0,0.0,22,0.00,,,0.00,Wunderground v.1.15,2013-05-18 05:10:00,
2013-05-17 23:12:00,59.3,20.4,29.76,SE,126,0.0,0.0,22,0.00,,,0.00,Wunderground v.1.15,2013-05-18 05:12:00,
2013-05-17 23:18:00,59.3,19.3,29.76,SE,126,0.0,0.0,21,0.00,,,0.00,Wunderground v.1.15,2013-05-18 05:18:00,
2013-05-17 23:20:00,59.5,19.5,29.76,SE,126,0.0,0.0,21,0.00,,,0.00,Wunderground v.1.15,2013-05-18 05:20:00,
2013-05-17 23:24:00,59.6,19.6,29.76,SE,126,0.0,0.0,21,0.00,,,0.00,Wunderground v.1.15,2013-05-18 05:24:00,
2013-05-17 23:26:00,59.8,20.8,29.76,SE,126,0.0,0.0,22,0.00,,,0.00,Wunderground v.1.15,2013-05-18 05:26:00,
2013-05-17 23:28:00,59.6,20.7,29.76,SE,126,0.0,0.0,22,0.00,,,0.00,Wunderground v.1.15,2013-05-18 05:28:00,
2013-05-17 23:30:00,59.2,20.3,29.76,SE,126,0.0,0.0,22,0.00,,,0.00,Wunderground v.1.15,2013-05-18 05:30:00,
2013-05-17 23:32:00,59.0,21.2,29.76,SE,125,0.0,0.0,23,0.00,,,0.00,Wunderground v.1.15,2013-05-18 05:32:00,
2013-05-17 23:34:00,58.7,21.0,29.76,SE,126,0.0,1.0,23,0.00,,,0.00,Wunderground v.1.15,2013-05-18 05:34:00,
2013-05-17 23:36:00,58.4,21.7,29.76,SE,126,0.0,1.0,24,0.00,,,0.00,Wunderground v.1.15,2013-05-18 05:36:00,
2013-05-17 23:38:00,58.1,21.4,29.76,SE,126,0.0,1.0,24,0.00,,,0.00,Wunderground v.1.15,2013-05-18 05:38:00,
2013-05-17 23:42:00,57.6,22.0,29.76,SE,126,0.0,0.0,25,0.00,,,0.00,Wunderground v.1.15,2013-05-18 05:42:00,
2013-05-17 23:44:00,57.3,21.7,29.76,SE,126,0.0,0.0,25,0.00,,,0.00,Wunderground v.1.15,2013-05-18 05:44:00,
2013-05-17 23:46:00,57.0,22.4,29.77,SE,126,0.0,0.0,26,0.00,,,0.00,Wunderground v.1.15,2013-05-18 05:46:00,
2013-05-17 23:50:00,56.6,23.0,29.77,SE,126,0.0,0.0,27,0.00,,,0.00,Wunderground v.1.15,2013-05-18 05:50:00,
2013-05-17 23:52:00,56.3,22.7,29.77,SE,126,0.0,0.0,27,0.00,,,0.00,Wunderground v.1.15,2013-05-18 05:52:00,
2013-05-17 23:56:00,55.7,23.9,29.77,SE,126,0.0,0.0,29,0.00,,,0.00,Wunderground v.1.15,2013-05-18 05:56:00,
2013-05-17 23:58:00,55.4,24.4,29.77,SE,126,0.0,1.0,30,0.00,,,0.00,Wunderground v.1.15,2013-05-18 05:58:00,